| time (UTC) | temp F | wind direction | speed MPH | gust MPH | rain 1hr in | rain 24hr in | rain mn in | humidity % | barometer mb |
| 20260505152834 | 64 | 108 | 0.0 | 1.0 | 0.00 | 0.00 | 0.00 | 74 | 1022.7 |
| 20260505152326 | 63 | 108 | 0.0 | 1.0 | 0.00 | 0.00 | 0.00 | 75 | 1022.8 |
| 20260505151836 | 63 | 107 | 0.0 | 1.0 | 0.00 | 0.00 | 0.00 | 75 | 1023.0 |
| 20260505151327 | 63 | 108 | 0.0 | 0.0 | 0.00 | 0.00 | 0.00 | 75 | 1023.0 |
| 20260505150818 | 62 | 107 | 0.0 | 1.0 | 0.00 | 0.00 | 0.00 | 75 | 1023.0 |
| 20260505150332 | 62 | 107 | 0.0 | 1.0 | 0.00 | 0.00 | 0.00 | 77 | 1022.9 |
| 20260505140321 | 53 | 104 | 0.0 | 0.0 | 0.00 | 0.00 | 0.00 | 90 | 1023.4 |
| 20260505124821 | 46 | 104 | 0.0 | 0.0 | 0.00 | 0.00 | 0.00 | 97 | 1023.5 |
| 20260505124335 | 46 | 104 | 0.0 | 0.0 | 0.00 | 0.00 | 0.00 | 97 | 1023.4 |
| 20260505123824 | 45 | 105 | 0.0 | 0.0 | 0.00 | 0.00 | 0.00 | 97 | 1023.5 |
| 20260505123354 | 45 | 104 | 0.0 | 0.0 | 0.00 | 0.00 | 0.00 | 97 | 1023.6 |
| 20260505122823 | 44 | 104 | 0.0 | 0.0 | 0.00 | 0.00 | 0.00 | 97 | 1023.6 |
| 20260505122331 | 44 | 105 | 0.0 | 0.0 | 0.00 | 0.00 | 0.00 | 97 | 1023.6 |
| 20260505121821 | 44 | 104 | 0.0 | 0.0 | 0.00 | 0.00 | 0.00 | 97 | 1023.6 |
| 20260505121352 | 43 | 105 | 0.0 | 0.0 | 0.00 | 0.00 | 0.00 | 97 | 1023.4 |
| 20260505120821 | 43 | 104 | 0.0 | 0.0 | 0.00 | 0.00 | 0.00 | 97 | 1023.4 |
| 20260505120330 | 43 | 105 | 0.0 | 0.0 | 0.00 | 0.00 | 0.00 | 96 | 1023.4 |
| 20260505115820 | 43 | 104 | 0.0 | 0.0 | 0.00 | 0.00 | 0.00 | 96 | 1023.4 |
| 20260505115331 | 43 | 104 | 0.0 | 0.0 | 0.00 | 0.00 | 0.00 | 96 | 1023.3 |
| 20260505114822 | 43 | 104 | 0.0 | 0.0 | 0.00 | 0.00 | 0.00 | 96 | 1023.4 |
| 20260505114336 | 42 | 104 | 0.0 | 0.0 | 0.00 | 0.00 | 0.00 | 96 | 1023.3 |
| 20260505113827 | 42 | 104 | 0.0 | 0.0 | 0.00 | 0.00 | 0.00 | 96 | 1023.2 |
| 20260505113336 | 42 | 104 | 0.0 | 0.0 | 0.00 | 0.00 | 0.00 | 96 | 1023.1 |
| 20260505112826 | 42 | 104 | 0.0 | 0.0 | 0.00 | 0.00 | 0.00 | 96 | 1023.1 |
| 20260505112335 | 42 | 104 | 0.0 | 0.0 | 0.00 | 0.00 | 0.00 | 96 | 1023.0 |
| 20260505111825 | 42 | 105 | 0.0 | 0.0 | 0.00 | 0.00 | 0.00 | 96 | 1022.9 |
| 20260505111336 | 42 | 104 | 0.0 | 0.0 | 0.00 | 0.00 | 0.00 | 96 | 1022.9 |
| 20260505110826 | 42 | 104 | 0.0 | 0.0 | 0.00 | 0.00 | 0.00 | 95 | 1022.8 |
| 20260505110323 | 42 | 104 | 0.0 | 0.0 | 0.00 | 0.00 | 0.00 | 95 | 1022.8 |
| 20260505101839 | 43 | 104 | 0.0 | 0.0 | 0.00 | 0.00 | 0.00 | 95 | 1022.9 |
| 20260505101327 | 43 | 104 | 0.0 | 0.0 | 0.00 | 0.00 | 0.00 | 95 | 1022.9 |
| 20260505100822 | 43 | 104 | 0.0 | 0.0 | 0.00 | 0.00 | 0.00 | 95 | 1022.8 |
| 20260505100333 | 43 | 105 | 0.0 | 0.0 | 0.00 | 0.00 | 0.00 | 95 | 1022.8 |
| 20260505095824 | 43 | 104 | 0.0 | 0.0 | 0.00 | 0.00 | 0.00 | 95 | 1022.8 |
| 20260505095334 | 44 | 104 | 0.0 | 0.0 | 0.00 | 0.00 | 0.00 | 95 | 1022.9 |
| 20260505094825 | 44 | 104 | 0.0 | 0.0 | 0.00 | 0.00 | 0.00 | 95 | 1022.9 |
| 20260505094356 | 44 | 104 | 0.0 | 0.0 | 0.00 | 0.00 | 0.00 | 95 | 1022.8 |
| 20260505093825 | 44 | 105 | 0.0 | 0.0 | 0.00 | 0.00 | 0.00 | 95 | 1022.9 |
| 20260505093335 | 44 | 105 | 0.0 | 0.0 | 0.00 | 0.00 | 0.00 | 95 | 1022.9 |
| 20260505092825 | 44 | 104 | 0.0 | 0.0 | 0.00 | 0.00 | 0.00 | 94 | 1022.8 |
| 20260505092320 | 44 | 104 | 0.0 | 0.0 | 0.00 | 0.00 | 0.00 | 94 | 1022.8 |
| 20260505091831 | 44 | 104 | 0.0 | 0.0 | 0.00 | 0.00 | 0.00 | 94 | 1022.7 |
| 20260505091322 | 44 | 105 | 0.0 | 0.0 | 0.00 | 0.00 | 0.00 | 94 | 1022.7 |
| 20260505090832 | 44 | 105 | 0.0 | 0.0 | 0.00 | 0.00 | 0.00 | 94 | 1022.7 |
| 20260505090324 | 45 | 104 | 0.0 | 0.0 | 0.00 | 0.00 | 0.00 | 94 | 1022.8 |
| 20260505085833 | 45 | 104 | 0.0 | 0.0 | 0.00 | 0.00 | 0.00 | 94 | 1022.8 |
| 20260505085325 | 45 | 104 | 0.0 | 0.0 | 0.00 | 0.00 | 0.00 | 94 | 1022.7 |
| 20260505084836 | 45 | 104 | 0.0 | 0.0 | 0.00 | 0.00 | 0.00 | 94 | 1022.7 |
| 20260505084326 | 45 | 104 | 0.0 | 0.0 | 0.00 | 0.00 | 0.00 | 94 | 1022.7 |
| 20260505083820 | 45 | 104 | 0.0 | 0.0 | 0.00 | 0.00 | 0.00 | 94 | 1022.6 |
| 20260505083332 | 45 | 104 | 0.0 | 0.0 | 0.00 | 0.00 | 0.00 | 94 | 1022.6 |
| 20260505082821 | 45 | 104 | 0.0 | 0.0 | 0.00 | 0.00 | 0.00 | 94 | 1022.6 |
| 20260505082332 | 45 | 104 | 0.0 | 0.0 | 0.00 | 0.00 | 0.00 | 94 | 1022.6 |
| 20260505081823 | 45 | 104 | 0.0 | 0.0 | 0.00 | 0.00 | 0.00 | 94 | 1022.5 |
| 20260505081353 | 45 | 104 | 0.0 | 0.0 | 0.00 | 0.00 | 0.00 | 93 | 1022.5 |
| 20260505080843 | 46 | 105 | 0.0 | 0.0 | 0.00 | 0.00 | 0.00 | 93 | 1022.4 |
| 20260505080333 | 46 | 104 | 0.0 | 0.0 | 0.00 | 0.00 | 0.00 | 93 | 1022.4 |
| 20260505075824 | 46 | 104 | 0.0 | 0.0 | 0.00 | 0.00 | 0.00 | 93 | 1022.4 |
| 20260505075354 | 46 | 104 | 0.0 | 0.0 | 0.00 | 0.00 | 0.00 | 93 | 1022.4 |
| 20260505074828 | 46 | 105 | 0.0 | 0.0 | 0.00 | 0.00 | 0.00 | 93 | 1022.4 |
| 20260505074317 | 46 | 104 | 0.0 | 0.0 | 0.00 | 0.00 | 0.00 | 93 | 1022.4 |
| 20260505073828 | 46 | 104 | 0.0 | 0.0 | 0.00 | 0.00 | 0.00 | 93 | 1022.3 |
| 20260505073338 | 46 | 105 | 0.0 | 0.0 | 0.00 | 0.00 | 0.00 | 93 | 1022.3 |
| 20260505072827 | 46 | 104 | 0.0 | 0.0 | 0.00 | 0.00 | 0.00 | 92 | 1022.2 |
| 20260505072336 | 47 | 105 | 0.0 | 0.0 | 0.00 | 0.00 | 0.00 | 92 | 1022.2 |
| 20260505071827 | 47 | 104 | 0.0 | 0.0 | 0.00 | 0.00 | 0.00 | 92 | 1022.2 |
| 20260505071319 | 47 | 105 | 0.0 | 0.0 | 0.00 | 0.00 | 0.00 | 92 | 1022.2 |
| 20260505070849 | 47 | 104 | 0.0 | 0.0 | 0.00 | 0.00 | 0.00 | 91 | 1022.1 |
| 20260505070339 | 47 | 104 | 0.0 | 0.0 | 0.00 | 0.00 | 0.00 | 91 | 1022.2 |
| 20260505065847 | 47 | 105 | 0.0 | 0.0 | 0.00 | 0.00 | 0.00 | 91 | 1022.2 |
| 20260505065338 | 47 | 104 | 0.0 | 0.0 | 0.00 | 0.00 | 0.00 | 91 | 1022.2 |
| 20260505064827 | 48 | 104 | 0.0 | 0.0 | 0.00 | 0.00 | 0.00 | 91 | 1022.3 |
| 20260505064319 | 48 | 104 | 0.0 | 0.0 | 0.00 | 0.00 | 0.00 | 91 | 1022.3 |
| 20260505063829 | 48 | 104 | 0.0 | 1.0 | 0.00 | 0.00 | 0.00 | 90 | 1022.3 |
| 20260505063319 | 48 | 105 | 0.0 | 1.0 | 0.00 | 0.00 | 0.00 | 90 | 1022.3 |
| 20260505062828 | 48 | 104 | 0.0 | 0.0 | 0.00 | 0.00 | 0.00 | 90 | 1022.2 |
| 20260505062318 | 48 | 104 | 0.0 | 1.0 | 0.00 | 0.00 | 0.00 | 90 | 1022.2 |
| 20260505061828 | 48 | 104 | 0.0 | 1.0 | 0.00 | 0.00 | 0.00 | 90 | 1022.3 |
| 20260505061340 | 49 | 105 | 0.0 | 0.0 | 0.00 | 0.00 | 0.00 | 89 | 1022.3 |
| 20260505060830 | 49 | 105 | 0.0 | 0.0 | 0.00 | 0.00 | 0.00 | 89 | 1022.3 |
| 20260505060321 | 49 | 104 | 0.0 | 0.0 | 0.00 | 0.00 | 0.00 | 89 | 1022.3 |
| 20260505055836 | 49 | 105 | 0.0 | 0.0 | 0.00 | 0.00 | 0.00 | 89 | 1022.4 |
| 20260505055326 | 49 | 104 | 0.0 | 0.0 | 0.00 | 0.00 | 0.00 | 89 | 1022.4 |
| 20260505054835 | 49 | 105 | 0.0 | 0.0 | 0.00 | 0.00 | 0.00 | 89 | 1022.4 |
| 20260505054325 | 49 | 105 | 0.0 | 0.0 | 0.00 | 0.00 | 0.00 | 88 | 1022.3 |
| 20260505053834 | 50 | 105 | 0.0 | 0.0 | 0.00 | 0.00 | 0.00 | 88 | 1022.3 |
| 20260505053324 | 50 | 104 | 0.0 | 0.0 | 0.00 | 0.00 | 0.00 | 88 | 1022.3 |
| 20260505052835 | 50 | 104 | 0.0 | 0.0 | 0.00 | 0.00 | 0.00 | 88 | 1022.4 |
| 20260505052325 | 50 | 104 | 0.0 | 0.0 | 0.00 | 0.00 | 0.00 | 88 | 1022.4 |
| 20260505051817 | 50 | 105 | 0.0 | 0.0 | 0.00 | 0.00 | 0.00 | 88 | 1022.3 |
| 20260505051331 | 50 | 104 | 0.0 | 0.0 | 0.00 | 0.00 | 0.00 | 87 | 1022.3 |
| 20260505050821 | 50 | 104 | 0.0 | 0.0 | 0.00 | 0.00 | 0.00 | 87 | 1022.2 |
| 20260505050333 | 50 | 104 | 0.0 | 0.0 | 0.00 | 0.00 | 0.00 | 87 | 1022.3 |
| 20260505041320 | 52 | 105 | 0.0 | 0.0 | 0.00 | 0.00 | 0.00 | 84 | 1022.1 |
| 20260505040829 | 52 | 104 | 0.0 | 0.0 | 0.00 | 0.00 | 0.00 | 84 | 1022.1 |
| 20260505040320 | 52 | 104 | 0.0 | 0.0 | 0.00 | 0.00 | 0.00 | 83 | 1022.0 |
| 20260505035824 | 52 | 104 | 0.0 | 0.0 | 0.00 | 0.00 | 0.00 | 83 | 1022.1 |
| 20260505035334 | 53 | 104 | 0.0 | 0.0 | 0.00 | 0.00 | 0.00 | 82 | 1022.1 |
| 20260505034825 | 53 | 104 | 0.0 | 0.0 | 0.00 | 0.00 | 0.00 | 82 | 1022.1 |
| 20260505034319 | 53 | 104 | 0.0 | 0.0 | 0.00 | 0.00 | 0.00 | 82 | 1022.3 |
| 20260505033830 | 53 | 104 | 0.0 | 0.0 | 0.00 | 0.00 | 0.00 | 81 | 1022.3 |
| 20260505033321 | 54 | 104 | 0.0 | 0.0 | 0.00 | 0.00 | 0.00 | 81 | 1022.2 |
| 20260505032832 | 54 | 105 | 0.0 | 0.0 | 0.00 | 0.00 | 0.00 | 81 | 1022.2 |
| 20260505032323 | 54 | 104 | 0.0 | 0.0 | 0.00 | 0.00 | 0.00 | 80 | 1022.3 |
| 20260505031849 | 54 | 105 | 0.0 | 0.0 | 0.00 | 0.00 | 0.00 | 80 | 1022.2 |
| 20260505031320 | 54 | 104 | 0.0 | 0.0 | 0.00 | 0.00 | 0.00 | 79 | 1022.3 |
| 20260505030830 | 55 | 104 | 0.0 | 0.0 | 0.00 | 0.00 | 0.00 | 79 | 1022.3 |
| 20260505030320 | 55 | 104 | 0.0 | 0.0 | 0.00 | 0.00 | 0.00 | 77 | 1022.3 |
| 20260505025829 | 55 | 104 | 0.0 | 0.0 | 0.00 | 0.00 | 0.00 | 77 | 1022.3 |
| 20260505025321 | 55 | 104 | 0.0 | 0.0 | 0.00 | 0.00 | 0.00 | 76 | 1022.4 |
| 20260505024853 | 56 | 104 | 0.0 | 0.0 | 0.00 | 0.00 | 0.00 | 75 | 1022.3 |
| 20260505024321 | 56 | 104 | 0.0 | 0.0 | 0.00 | 0.00 | 0.00 | 74 | 1022.3 |
| 20260505023830 | 56 | 104 | 0.0 | 0.0 | 0.00 | 0.00 | 0.00 | 74 | 1022.3 |
| 20260505023319 | 56 | 104 | 0.0 | 0.0 | 0.00 | 0.00 | 0.00 | 73 | 1022.3 |
| 20260505022831 | 57 | 104 | 0.0 | 0.0 | 0.00 | 0.00 | 0.00 | 73 | 1022.2 |
| 20260505022322 | 57 | 104 | 0.0 | 0.0 | 0.00 | 0.00 | 0.00 | 73 | 1022.2 |
| 20260505021832 | 57 | 104 | 0.0 | 0.0 | 0.00 | 0.00 | 0.00 | 73 | 1022.0 |
| 20260505021323 | 57 | 104 | 0.0 | 0.0 | 0.00 | 0.00 | 0.00 | 72 | 1022.0 |
| 20260505020818 | 57 | 104 | 0.0 | 0.0 | 0.00 | 0.00 | 0.00 | 72 | 1022.0 |
| 20260505020328 | 58 | 104 | 0.0 | 0.0 | 0.00 | 0.00 | 0.00 | 72 | 1021.9 |
| 20260505015817 | 58 | 104 | 0.0 | 0.0 | 0.00 | 0.00 | 0.00 | 71 | 1021.9 |
| 20260505015327 | 58 | 104 | 0.0 | 0.0 | 0.00 | 0.00 | 0.00 | 72 | 1021.7 |
| 20260505014838 | 58 | 104 | 0.0 | 0.0 | 0.00 | 0.00 | 0.00 | 71 | 1021.7 |
| 20260505014349 | 59 | 104 | 0.0 | 0.0 | 0.00 | 0.00 | 0.00 | 71 | 1021.6 |
| 20260505013836 | 59 | 104 | 0.0 | 0.0 | 0.00 | 0.00 | 0.00 | 69 | 1021.6 |
| 20260505013326 | 59 | 104 | 0.0 | 0.0 | 0.00 | 0.00 | 0.00 | 69 | 1021.5 |
| 20260505012819 | 60 | 104 | 0.0 | 0.0 | 0.00 | 0.00 | 0.00 | 69 | 1021.4 |
| 20260505012329 | 60 | 104 | 0.0 | 0.0 | 0.00 | 0.00 | 0.00 | 68 | 1021.4 |
| 20260505011824 | 60 | 104 | 0.0 | 0.0 | 0.00 | 0.00 | 0.00 | 69 | 1021.3 |
| 20260505011334 | 61 | 104 | 0.0 | 0.0 | 0.00 | 0.00 | 0.00 | 68 | 1021.2 |
| 20260505010826 | 61 | 104 | 0.0 | 0.0 | 0.00 | 0.00 | 0.00 | 68 | 1021.2 |
| 20260505010317 | 61 | 104 | 0.0 | 0.0 | 0.00 | 0.00 | 0.00 | 65 | 1021.2 |
| 20260505005828 | 62 | 104 | 0.0 | 0.0 | 0.00 | 0.00 | 0.00 | 65 | 1021.1 |
| 20260505005319 | 62 | 104 | 0.0 | 1.0 | 0.00 | 0.00 | 0.00 | 67 | 1021.0 |
| 20260505004829 | 62 | 104 | 0.0 | 1.0 | 0.00 | 0.00 | 0.00 | 66 | 1021.0 |
| 20260505004321 | 63 | 104 | 0.0 | 1.0 | 0.00 | 0.00 | 0.00 | 66 | 1020.8 |
| 20260505003817 | 63 | 104 | 0.0 | 1.0 | 0.00 | 0.00 | 0.00 | 66 | 1020.8 |
| 20260505003327 | 63 | 104 | 0.0 | 1.0 | 0.00 | 0.00 | 0.00 | 64 | 1020.7 |
| 20260505002818 | 64 | 104 | 0.0 | 1.0 | 0.00 | 0.00 | 0.00 | 64 | 1020.6 |
| 20260505002348 | 64 | 104 | 0.0 | 1.0 | 0.00 | 0.00 | 0.00 | 64 | 1020.5 |
| 20260505001818 | 64 | 104 | 0.0 | 1.0 | 0.00 | 0.00 | 0.00 | 64 | 1020.5 |
| 20260505001329 | 65 | 103 | 0.0 | 1.0 | 0.00 | 0.00 | 0.00 | 64 | 1020.4 |
| 20260505000819 | 65 | 103 | 0.0 | 2.0 | 0.00 | 0.00 | 0.00 | 62 | 1020.3 |
| 20260505000329 | 66 | 104 | 0.0 | 2.0 | 0.00 | 0.00 | 0.00 | 62 | 1020.4 |
| 20260504235821 | 66 | 103 | 0.0 | 1.0 | 0.00 | 0.00 | 0.00 | 62 | 1020.4 |
| 20260504235352 | 67 | 103 | 0.0 | 2.0 | 0.00 | 0.00 | 0.00 | 61 | 1020.2 |
| 20260504234827 | 67 | 113 | 0.0 | 2.0 | 0.00 | 0.00 | 0.00 | 59 | 1020.2 |
| 20260504234340 | 68 | 130 | 0.0 | 1.0 | 0.00 | 0.00 | 0.00 | 58 | 1020.1 |
| 20260504233830 | 69 | 203 | 0.0 | 2.0 | 0.00 | 0.00 | 0.00 | 54 | 1020.1 |
| 20260504233320 | 69 | 108 | 0.0 | 2.0 | 0.00 | 0.00 | 0.00 | 53 | 1020.1 |
| 20260504232830 | 69 | 267 | 1.0 | 2.0 | 0.00 | 0.00 | 0.00 | 50 | 1020.0 |
| 20260504232322 | 70 | 123 | 0.0 | 2.0 | 0.00 | 0.00 | 0.00 | 52 | 1020.0 |
| 20260504231832 | 70 | 260 | 0.0 | 4.0 | 0.00 | 0.00 | 0.00 | 48 | 1019.9 |
| 20260504231343 | 70 | 240 | 1.0 | 4.0 | 0.00 | 0.00 | 0.00 | 46 | 1019.9 |
| 20260504230833 | 71 | 265 | 0.0 | 3.0 | 0.00 | 0.00 | 0.00 | 49 | 1019.8 |
| 20260504230328 | 71 | 246 | 1.0 | 3.0 | 0.00 | 0.00 | 0.00 | 46 | 1019.8 |
| 20260504225819 | 70 | 262 | 1.0 | 3.0 | 0.00 | 0.00 | 0.00 | 45 | 1019.7 |
| 20260504225327 | 70 | 267 | 0.0 | 2.0 | 0.00 | 0.00 | 0.00 | 52 | 1019.6 |
| 20260504224818 | 70 | 104 | 0.0 | 1.0 | 0.00 | 0.00 | 0.00 | 51 | 1019.6 |
| 20260504224327 | 70 | 105 | 0.0 | 1.0 | 0.00 | 0.00 | 0.00 | 50 | 1019.6 |
| 20260504223857 | 71 | 105 | 0.0 | 1.0 | 0.00 | 0.00 | 0.00 | 48 | 1019.6 |
| 20260504223325 | 72 | 105 | 0.0 | 2.0 | 0.00 | 0.00 | 0.00 | 46 | 1019.5 |
| 20260504222816 | 73 | 104 | 1.0 | 2.0 | 0.00 | 0.00 | 0.00 | 44 | 1019.5 |
| 20260504222328 | 74 | 97 | 1.0 | 2.0 | 0.00 | 0.00 | 0.00 | 42 | 1019.5 |
| 20260504221823 | 75 | 113 | 0.0 | 2.0 | 0.00 | 0.00 | 0.00 | 41 | 1019.4 |
| 20260504221334 | 75 | 231 | 0.0 | 2.0 | 0.00 | 0.00 | 0.00 | 36 | 1019.4 |
| 20260504220825 | 76 | 124 | 0.0 | 3.0 | 0.00 | 0.00 | 0.00 | 37 | 1019.4 |
| 20260504220335 | 76 | 234 | 0.0 | 3.0 | 0.00 | 0.00 | 0.00 | 33 | 1019.3 |
| 20260504215846 | 76 | 269 | 1.0 | 6.0 | 0.00 | 0.00 | 0.00 | 32 | 1019.2 |
| 20260504215335 | 76 | 280 | 1.0 | 6.0 | 0.00 | 0.00 | 0.00 | 34 | 1019.3 |
| 20260504214827 | 76 | 313 | 0.0 | 3.0 | 0.00 | 0.00 | 0.00 | 32 | 1019.2 |
| 20260504214317 | 76 | 279 | 1.0 | 3.0 | 0.00 | 0.00 | 0.00 | 29 | 1019.1 |
| 20260504213828 | 76 | 229 | 0.0 | 4.0 | 0.00 | 0.00 | 0.00 | 31 | 1019.1 |
| 20260504213324 | 77 | 300 | 0.0 | 3.0 | 0.00 | 0.00 | 0.00 | 35 | 1019.2 |
| 20260504212836 | 77 | 115 | 0.0 | 3.0 | 0.00 | 0.00 | 0.00 | 34 | 1019.1 |
| 20260504212327 | 77 | 259 | 1.0 | 5.0 | 0.00 | 0.00 | 0.00 | 28 | 1019.1 |
| 20260504211819 | 77 | 3 | 0.0 | 5.0 | 0.00 | 0.00 | 0.00 | 28 | 1019.1 |
| 20260504211329 | 78 | 145 | 1.0 | 2.0 | 0.00 | 0.00 | 0.00 | 29 | 1019.2 |
| 20260504210820 | 78 | 97 | 0.0 | 3.0 | 0.00 | 0.00 | 0.00 | 33 | 1019.3 |
| 20260504210331 | 78 | 321 | 1.0 | 3.0 | 0.00 | 0.00 | 0.00 | 30 | 1019.3 |
| 20260504205821 | 78 | 86 | 0.0 | 1.0 | 0.00 | 0.00 | 0.00 | 32 | 1019.3 |
| 20260504205330 | 78 | 236 | 0.0 | 2.0 | 0.00 | 0.00 | 0.00 | 31 | 1019.4 |
| 20260504204825 | 78 | 238 | 1.0 | 2.0 | 0.00 | 0.00 | 0.00 | 31 | 1019.4 |
| 20260504204334 | 79 | 108 | 1.0 | 2.0 | 0.00 | 0.00 | 0.00 | 34 | 1019.4 |
| 20260504203824 | 79 | 212 | 0.0 | 3.0 | 0.00 | 0.00 | 0.00 | 31 | 1019.5 |
| 20260504203336 | 79 | 215 | 2.0 | 3.0 | 0.00 | 0.00 | 0.00 | 29 | 1019.5 |
| 20260504202826 | 80 | 205 | 1.0 | 3.0 | 0.00 | 0.00 | 0.00 | 31 | 1019.6 |
| 20260504202317 | 79 | 265 | 0.0 | 2.0 | 0.00 | 0.00 | 0.00 | 30 | 1019.7 |
| 20260504201828 | 80 | 252 | 0.0 | 4.0 | 0.00 | 0.00 | 0.00 | 30 | 1019.7 |
| 20260504201338 | 81 | 122 | 1.0 | 5.0 | 0.00 | 0.00 | 0.00 | 29 | 1019.8 |
| 20260504200827 | 82 | 286 | 0.0 | 2.0 | 0.00 | 0.00 | 0.00 | 29 | 1019.8 |
| 20260504200322 | 82 | 120 | 0.0 | 1.0 | 0.00 | 0.00 | 0.00 | 28 | 1019.8 |
| 20260504195832 | 81 | 115 | 0.0 | 1.0 | 0.00 | 0.00 | 0.00 | 30 | 1019.8 |
| 20260504195322 | 81 | 115 | 0.0 | 2.0 | 0.00 | 0.00 | 0.00 | 29 | 1020.0 |
| 20260504194834 | 80 | 259 | 0.0 | 2.0 | 0.00 | 0.00 | 0.00 | 30 | 1020.1 |
| 20260504194325 | 80 | 137 | 0.0 | 1.0 | 0.00 | 0.00 | 0.00 | 31 | 1020.2 |
| 20260504193818 | 80 | 105 | 0.0 | 2.0 | 0.00 | 0.00 | 0.00 | 30 | 1020.3 |
| 20260504193329 | 79 | 234 | 0.0 | 2.0 | 0.00 | 0.00 | 0.00 | 30 | 1020.3 |
| 20260504192820 | 79 | 199 | 0.0 | 3.0 | 0.00 | 0.00 | 0.00 | 30 | 1020.4 |
| 20260504192409 | 79 | 146 | 1.0 | 3.0 | 0.00 | 0.00 | 0.00 | 30 | 1020.5 |
| 20260504190329 | 78 | 242 | 0.0 | 2.0 | 0.00 | 0.00 | 0.00 | 33 | 1020.9 |
| 20260504185818 | 78 | 106 | 1.0 | 3.0 | 0.00 | 0.00 | 0.00 | 32 | 1021.0 |
| 20260504185325 | 78 | 257 | 0.0 | 5.0 | 0.00 | 0.00 | 0.00 | 33 | 1021.1 |
| 20260504184835 | 78 | 255 | 0.0 | 3.0 | 0.00 | 0.00 | 0.00 | 32 | 1021.1 |
| 20260504184324 | 78 | 113 | 1.0 | 3.0 | 0.00 | 0.00 | 0.00 | 32 | 1021.2 |
| 20260504183834 | 78 | 271 | 1.0 | 3.0 | 0.00 | 0.00 | 0.00 | 33 | 1021.3 |
| 20260504183324 | 77 | 249 | 1.0 | 3.0 | 0.00 | 0.00 | 0.00 | 34 | 1021.4 |
| 20260504182833 | 78 | 251 | 1.0 | 3.0 | 0.00 | 0.00 | 0.00 | 33 | 1021.5 |
| 20260504182340 | 78 | 203 | 0.0 | 2.0 | 0.00 | 0.00 | 0.00 | 34 | 1021.5 |
| 20260504181828 | 78 | 153 | 0.0 | 2.0 | 0.00 | 0.00 | 0.00 | 33 | 1021.6 |
| 20260504181322 | 77 | 220 | 1.0 | 3.0 | 0.00 | 0.00 | 0.00 | 35 | 1021.6 |
| 20260504180831 | 77 | 264 | 0.0 | 5.0 | 0.00 | 0.00 | 0.00 | 34 | 1021.7 |
| 20260504180322 | 77 | 235 | 0.0 | 5.0 | 0.00 | 0.00 | 0.00 | 36 | 1021.7 |
| 20260504175832 | 77 | 118 | 0.0 | 1.0 | 0.00 | 0.00 | 0.00 | 36 | 1021.8 |
| 20260504175320 | 76 | 141 | 0.0 | 4.0 | 0.00 | 0.00 | 0.00 | 38 | 1021.9 |
| 20260504174829 | 76 | 148 | 1.0 | 4.0 | 0.00 | 0.00 | 0.00 | 36 | 1021.9 |
| 20260504174319 | 76 | 184 | 1.0 | 3.0 | 0.00 | 0.00 | 0.00 | 36 | 1022.0 |
| 20260504173829 | 76 | 113 | 1.0 | 5.0 | 0.00 | 0.00 | 0.00 | 37 | 1022.1 |
| 20260504173323 | 77 | 244 | 1.0 | 5.0 | 0.00 | 0.00 | 0.00 | 35 | 1022.3 |
| 20260504172853 | 76 | 57 | 1.0 | 2.0 | 0.00 | 0.00 | 0.00 | 36 | 1022.3 |
| 20260504172322 | 76 | 223 | 0.0 | 4.0 | 0.00 | 0.00 | 0.00 | 37 | 1022.3 |
| 20260504171832 | 76 | 232 | 1.0 | 4.0 | 0.00 | 0.00 | 0.00 | 39 | 1022.4 |
| 20260504171340 | 76 | 191 | 0.0 | 2.0 | 0.00 | 0.00 | 0.00 | 39 | 1022.5 |
| 20260504170830 | 76 | 115 | 0.0 | 2.0 | 0.00 | 0.00 | 0.00 | 40 | 1022.7 |
| 20260504170319 | 75 | 146 | 0.0 | 3.0 | 0.00 | 0.00 | 0.00 | 40 | 1022.7 |
| 20260504160330 | 66 | 244 | 0.0 | 1.0 | 0.00 | 0.00 | 0.00 | 53 | 1023.9 |